�N����,����,�~����,�C��,���x,�C��,����,���ϕ���,�ő�u�ԕ���,�ő厞����,���˗�,�I�_���x,�n�����x,�ő啗���N��,DTYPE
"21/02/28","00:10",0.0,2.2,78.0,1025.3,326.3,4.7,5.9,331.2,0.00,-1.2,130.0,"00:00:34",1
"21/02/28","00:20",0.0,2.0,78.2,1025.3,327.7,3.6,4.9,329.9,0.00,-1.4,130.0,"00:12:12",1
"21/02/28","00:30",0.0,1.6,78.7,1025.1,329.9,3.5,5.4,336.9,0.00,-1.7,130.0,"00:29:20",1
"21/02/28","00:40",0.0,1.7,79.1,1025.1,325.6,3.9,5.8,324.6,0.00,-1.5,130.0,"00:36:18",1
"21/02/28","00:50",0.0,1.7,79.3,1024.9,325.8,3.4,4.5,336.4,0.00,-1.5,130.0,"00:42:32",1
"21/02/28","01:00",0.0,1.4,79.6,1024.9,327.8,2.7,4.3,339.6,0.00,-1.7,130.0,"00:50:08",1
"21/02/28","01:10",0.0,1.4,80.1,1024.9,325.5,3.5,4.8,331.0,0.00,-1.6,130.0,"01:01:12",1
"21/02/28","01:20",0.0,1.4,80.4,1024.9,318.4,3.1,4.4,316.6,0.00,-1.6,130.0,"01:17:04",1
"21/02/28","01:30",0.0,1.5,80.6,1025.3,321.8,3.6,5.2,322.1,0.00,-1.4,130.0,"01:24:02",1
"21/02/28","01:40",0.0,1.2,80.8,1025.1,292.8,2.1,3.3,314.1,0.00,-1.7,130.0,"01:31:04",1
"21/02/28","01:50",0.0,0.9,81.4,1024.9,309.2,2.6,4.0,335.5,0.00,-1.9,130.0,"01:49:28",1
"21/02/28","02:00",0.0,1.0,81.7,1024.9,302.2,2.2,3.1,308.5,0.00,-1.7,130.0,"01:50:08",1
"21/02/28","02:10",0.0,1.1,82.1,1024.9,317.1,3.2,4.8,332.8,0.00,-1.6,130.0,"02:05:36",1
"21/02/28","02:20",0.0,1.2,82.3,1025.1,322.1,3.1,4.2,329.9,0.00,-1.4,130.0,"02:12:00",1
"21/02/28","02:30",0.0,0.8,82.6,1025.1,306.9,1.7,2.5,322.6,0.00,-1.8,130.0,"02:26:56",1
"21/02/28","02:40",0.0,0.5,82.9,1024.6,306.1,1.7,2.7,310.1,0.00,-2.0,130.0,"02:30:08",1
"21/02/28","02:50",0.0,0.5,83.5,1024.9,309.8,2.2,2.9,327.8,0.00,-1.9,130.0,"02:46:32",1
"21/02/28","03:00",0.0,0.6,83.9,1024.6,318.1,1.6,2.8,317.5,0.00,-1.8,130.0,"02:51:28",1
"21/02/28","03:10",0.0,0.3,84.3,1024.9,320.0,2.1,3.1,318.6,0.00,-2.0,130.0,"03:06:56",1
"21/02/28","03:20",0.0,0.1,85.1,1024.4,326.2,1.8,2.5,320.7,0.00,-2.1,130.0,"03:10:40",1
"21/02/28","03:30",0.0,0.3,85.7,1024.4,321.2,1.8,2.4,322.5,0.00,-1.8,130.0,"03:24:16",1
"21/02/28","03:40",0.0,0.5,86.1,1024.4,312.7,2.1,2.7,324.6,0.00,-1.5,130.0,"03:35:44",1
"21/02/28","03:50",0.0,0.6,86.5,1024.6,308.3,1.8,2.9,322.8,0.00,-1.3,130.0,"03:40:08",1
"21/02/28","04:00",0.0,0.8,86.8,1024.4,297.5,1.6,2.1,305.5,0.00,-1.1,130.0,"03:54:08",1
"21/02/28","04:10",0.0,0.9,87.0,1024.6,318.5,2.0,3.1,314.2,0.00,-1.0,130.0,"04:03:12",1
"21/02/28","04:20",0.0,0.7,87.2,1024.6,312.6,1.6,2.4,344.3,0.00,-1.1,130.0,"04:10:48",1
"21/02/28","04:30",0.0,0.7,87.5,1024.9,308.8,2.1,3.4,332.2,0.00,-1.1,130.0,"04:29:04",1
"21/02/28","04:40",0.0,0.8,87.6,1025.1,301.0,2.1,3.3,303.4,0.00,-1.0,130.0,"04:32:40",1
"21/02/28","04:50",0.0,0.7,87.8,1025.1,318.2,2.0,3.1,325.0,0.00,-1.0,130.0,"04:46:56",1
"21/02/28","05:00",0.0,0.7,88.0,1025.1,306.8,2.2,2.7,312.7,0.00,-1.0,130.0,"04:52:08",1
"21/02/28","05:10",0.0,0.9,88.1,1025.3,299.6,1.8,2.8,299.0,0.00,-0.8,130.0,"05:00:24",1
"21/02/28","05:20",0.0,1.3,88.1,1025.6,307.0,2.3,3.1,316.5,0.00,-0.4,130.0,"05:11:12",1
"21/02/28","05:30",0.0,1.3,88.2,1026.0,309.7,2.3,3.1,322.8,0.00,-0.4,130.0,"05:21:36",1
"21/02/28","05:40",0.0,1.8,88.1,1025.6,299.0,2.5,3.3,313.0,0.00,0.1,130.0,"05:33:12",1
"21/02/28","05:50",0.0,2.1,87.9,1025.8,297.9,1.8,3.1,311.9,0.00,0.3,130.0,"05:43:44",1
"21/02/28","06:00",0.0,2.3,87.7,1026.0,286.2,2.0,2.6,271.2,0.00,0.5,130.0,"05:56:32",1
"21/02/28","06:10",0.0,2.6,87.3,1026.0,288.8,1.8,2.7,310.5,0.00,0.7,130.0,"06:09:36",1
"21/02/28","06:20",0.0,2.8,87.0,1026.5,299.8,1.7,3.2,311.0,0.00,0.9,130.0,"06:10:16",1
"21/02/28","06:30",0.0,2.7,86.6,1025.8,308.1,1.5,2.1,317.5,0.00,0.7,130.0,"06:27:20",1
"21/02/28","06:40",0.0,2.7,86.6,1026.5,291.8,1.5,2.1,283.4,0.00,0.7,130.0,"06:32:56",1
"21/02/28","06:50",0.0,3.0,86.4,1026.7,277.2,1.6,2.0,291.9,0.00,1.0,130.0,"06:43:36",1
"21/02/28","07:00",0.0,3.2,86.2,1027.0,277.3,1.7,2.4,319.8,0.00,1.2,130.0,"06:50:16",1
"21/02/28","07:10",0.0,3.4,85.9,1027.2,277.2,1.6,2.0,289.4,0.00,1.3,130.0,"07:05:04",1
"21/02/28","07:20",0.0,3.6,85.8,1027.2,284.7,1.2,2.4,305.8,0.00,1.5,130.0,"07:14:24",1
"21/02/28","07:30",0.0,3.7,85.7,1027.5,293.8,1.3,2.4,315.3,0.01,1.6,130.0,"07:22:56",1
"21/02/28","07:40",0.0,4.1,85.6,1027.2,283.5,1.6,2.0,298.6,0.03,1.9,130.0,"07:37:28",1
"21/02/28","07:50",0.0,4.5,85.5,1027.9,287.7,1.7,2.5,309.3,0.04,2.3,130.0,"07:41:28",1
"21/02/28","08:00",0.0,4.9,85.1,1027.7,282.2,1.6,2.7,321.1,0.06,2.7,130.0,"07:50:02",1
"21/02/28","08:10",0.0,5.4,84.7,1027.9,282.1,1.6,2.4,317.2,0.07,3.1,130.0,"08:00:56",1
"21/02/28","08:20",0.0,6.0,83.6,1028.4,302.2,1.7,2.6,318.4,0.10,3.5,130.0,"08:16:02",1
"21/02/28","08:30",0.0,6.6,82.3,1028.4,277.9,1.5,1.9,271.2,0.09,3.8,130.0,"08:20:08",1
"21/02/28","08:40",0.0,7.4,80.6,1028.4,273.9,1.6,2.1,277.1,0.12,4.3,130.0,"08:37:14",1
"21/02/28","08:50",0.0,7.8,78.3,1028.9,278.2,1.6,2.4,268.7,0.11,4.3,130.0,"08:40:48",1
"21/02/28","09:00",0.0,8.1,75.2,1029.1,260.7,1.1,1.8,248.1,0.11,4.0,130.0,"08:50:48",1
"21/02/28","09:10",0.0,8.4,72.6,1029.3,267.5,1.2,1.9,248.8,0.13,3.8,130.0,"09:06:40",1
"21/02/28","09:20",0.0,9.2,70.1,1029.3,251.2,1.1,1.8,250.3,0.21,4.1,130.0,"09:12:24",1
"21/02/28","09:30",0.0,10.3,67.8,1028.6,263.7,1.1,2.7,232.4,0.31,4.7,130.0,"09:27:20",1
"21/02/28","09:40",0.0,10.2,66.0,1029.3,246.5,0.8,1.4,244.7,0.19,4.2,130.0,"09:39:44",1
"21/02/28","09:50",0.0,10.7,63.8,1029.3,244.3,0.8,1.3,240.8,0.24,4.2,130.0,"09:40:24",1
"21/02/28","10:00",0.0,10.3,63.2,1029.1,149.4,1.2,2.8,132.1,0.20,3.7,130.0,"09:51:44",1
"21/02/28","10:10",0.0,10.1,64.1,1029.1,205.2,1.2,2.4,108.4,0.17,3.7,130.0,"10:00:32",1
"21/02/28","10:20",0.0,10.3,63.9,1029.1,172.7,1.1,2.7,139.0,0.23,3.8,130.0,"10:16:32",1
"21/02/28","10:30",0.0,10.5,63.2,1028.6,130.2,1.0,3.4,122.3,0.21,3.8,130.0,"10:22:40",1
"21/02/28","10:40",0.0,10.7,63.4,1028.6,174.0,1.5,3.6,113.2,0.22,4.1,130.0,"10:38:00",1
"21/02/28","10:50",0.0,10.7,63.9,1028.4,138.2,1.8,4.0,125.3,0.25,4.2,130.0,"10:43:04",1
"21/02/28","11:00",0.0,11.0,63.3,1028.6,142.3,1.2,2.8,130.8,0.25,4.3,130.0,"10:51:28",1
"21/02/28","11:10",0.0,11.1,62.5,1028.2,139.8,1.2,3.9,116.3,0.24,4.3,130.0,"11:00:56",1
"21/02/28","11:20",0.0,11.1,62.1,1028.6,185.9,1.6,2.8,106.6,0.25,4.2,130.0,"11:12:08",1
"21/02/28","11:30",0.0,11.5,61.8,1028.2,283.0,0.8,2.0,143.4,0.21,4.5,130.0,"11:21:12",1
"21/02/28","11:40",0.0,11.7,61.2,1028.2,250.3,1.2,2.7,244.7,0.23,4.5,130.0,"11:31:12",1
"21/02/28","11:50",0.0,11.8,61.7,1027.7,274.0,0.8,1.7,251.3,0.17,4.7,130.0,"11:40:08",1
"21/02/28","12:00",0.0,12.5,60.8,1027.5,279.2,1.2,2.1,301.7,0.38,5.2,130.0,"11:58:56",1
"21/02/28","12:10",0.0,13.5,56.5,1027.2,271.2,1.2,2.2,242.7,0.48,5.1,130.0,"12:05:52",1
"21/02/28","12:20",0.0,13.6,56.8,1027.0,246.0,0.8,2.5,228.9,0.35,5.2,130.0,"12:13:28",1
"21/02/28","12:30",0.0,13.4,56.7,1027.0,167.6,1.2,4.0,144.8,0.25,5.0,130.0,"12:29:36",1
"21/02/28","12:40",0.0,12.8,59.8,1026.7,129.4,2.0,3.9,114.9,0.18,5.2,130.0,"12:30:56",1
"21/02/28","12:50",0.0,14.0,58.6,1026.7,191.3,1.3,3.2,144.8,0.48,6.1,130.0,"12:48:24",1
"21/02/28","13:00",0.0,14.0,55.4,1026.5,131.8,2.0,3.6,115.0,0.39,5.3,130.0,"12:58:48",1
"21/02/28","13:10",0.0,12.9,56.8,1026.3,135.1,2.7,5.7,119.2,0.12,4.6,130.0,"13:05:04",1
"21/02/28","13:20",0.0,12.8,57.8,1026.0,141.5,2.2,4.1,156.7,0.08,4.7,130.0,"13:15:20",1
"21/02/28","13:30",0.0,12.6,57.9,1025.8,162.8,1.2,3.4,138.1,0.05,4.6,130.0,"13:20:24",1
"21/02/28","13:40",0.0,12.6,56.6,1026.0,168.6,3.0,5.8,169.1,0.09,4.3,130.0,"13:35:52",1
"21/02/28","13:50",0.0,13.8,56.0,1025.6,164.4,3.2,5.2,120.9,0.33,5.2,130.0,"13:49:04",1
"21/02/28","14:00",0.0,13.7,54.1,1025.3,125.7,3.2,5.7,124.8,0.35,4.6,130.0,"13:52:08",1
"21/02/28","14:10",0.0,13.5,54.8,1025.6,157.4,2.8,4.5,123.6,0.27,4.6,130.0,"14:01:12",1
"21/02/28","14:20",0.0,13.5,54.1,1025.3,172.0,2.5,5.2,129.9,0.25,4.4,130.0,"14:11:52",1
"21/02/28","14:30",0.0,13.5,53.8,1025.3,146.8,2.2,6.6,112.0,0.19,4.4,130.0,"14:27:36",1
"21/02/28","14:40",0.0,13.7,53.8,1025.3,166.7,2.0,4.0,120.1,0.21,4.6,130.0,"14:30:40",1
"21/02/28","14:50",0.0,13.3,54.9,1025.3,181.2,2.8,5.1,168.3,0.13,4.5,130.0,"14:41:52",1
"21/02/28","15:00",0.0,13.1,55.0,1025.3,154.1,2.3,4.7,125.8,0.09,4.3,130.0,"14:53:52",1
"21/02/28","15:10",0.0,13.2,55.3,1025.1,161.6,1.8,4.7,151.1,0.10,4.5,130.0,"15:07:04",1
"21/02/28","15:20",0.0,13.5,55.8,1025.1,135.2,2.1,4.1,124.5,0.14,4.9,130.0,"15:12:32",1
"21/02/28","15:30",0.0,13.5,55.0,1024.9,149.2,1.7,3.3,132.8,0.13,4.7,130.0,"15:25:52",1
"21/02/28","15:40",0.0,13.7,55.0,1025.1,162.3,1.1,2.7,190.7,0.12,4.9,130.0,"15:35:20",1
"21/02/28","15:50",0.0,13.6,55.5,1025.1,136.4,1.7,3.9,160.7,0.12,4.9,130.0,"15:44:00",1
"21/02/28","16:00",0.0,13.8,55.4,1024.9,127.0,1.3,3.6,192.5,0.14,5.1,130.0,"15:53:52",1
"21/02/28","16:10",0.0,13.6,55.6,1025.1,101.6,2.0,3.7,109.5,0.14,4.9,130.0,"16:05:04",1
"21/02/28","16:20",0.0,13.9,55.4,1024.9,107.4,1.6,4.3,124.2,0.16,5.2,130.0,"16:19:52",1
"21/02/28","16:30",0.0,13.6,55.8,1024.9,122.9,2.2,3.7,116.4,0.09,5.0,130.0,"16:27:36",1
"21/02/28","16:40",0.0,13.5,55.9,1024.6,138.6,2.1,3.9,155.9,0.08,4.9,130.0,"16:39:52",1
"21/02/28","16:50",0.0,13.5,56.3,1025.1,142.6,1.7,4.4,171.7,0.05,5.0,130.0,"16:42:32",1
"21/02/28","17:00",0.0,13.3,56.5,1025.1,124.9,1.7,3.7,146.4,0.05,4.9,130.0,"16:54:32",1
"21/02/28","17:10",0.0,13.1,56.4,1024.9,120.9,2.3,3.9,115.5,0.03,4.7,130.0,"17:03:44",1
"21/02/28","17:20",0.0,12.9,57.2,1025.1,127.0,2.2,3.5,115.7,0.02,4.7,130.0,"17:10:08",1
"21/02/28","17:30",0.0,12.6,58.1,1025.6,128.4,1.5,4.0,135.5,0.01,4.6,130.0,"17:20:16",1
"21/02/28","17:40",0.0,12.4,58.2,1025.1,127.5,2.0,3.7,128.9,0.00,4.5,130.0,"17:34:16",1
"21/02/28","17:50",0.0,12.3,58.8,1024.9,118.3,1.7,3.5,101.1,0.00,4.5,130.0,"17:44:48",1
"21/02/28","18:00",0.0,11.8,59.6,1025.1,139.3,0.7,1.7,142.0,0.00,4.2,130.0,"17:51:56",1
"21/02/28","18:10",0.0,11.6,60.6,1025.1,339.6,1.0,2.0,321.3,0.00,4.3,130.0,"18:07:10",1
"21/02/28","18:20",0.0,10.9,62.4,1025.6,331.0,1.6,1.9,333.5,0.00,4.0,130.0,"18:11:20",1
"21/02/28","18:30",0.0,10.2,64.7,1025.6,318.1,1.6,2.2,326.8,0.00,3.9,130.0,"18:20:48",1
"21/02/28","18:40",0.0,9.9,67.4,1025.3,320.7,2.1,2.8,322.5,0.00,4.2,130.0,"18:32:08",1
"21/02/28","18:50",0.0,9.4,69.0,1025.6,312.7,1.8,2.6,310.4,0.00,4.0,130.0,"18:48:32",1
"21/02/28","19:00",0.0,9.0,70.2,1025.3,313.9,1.5,2.4,322.8,0.00,3.9,130.0,"18:57:52",1
"21/02/28","19:10",0.0,9.1,71.3,1025.6,308.6,1.8,2.7,314.8,0.00,4.2,130.0,"19:04:40",1
"21/02/28","19:20",0.0,9.4,72.2,1025.8,326.2,1.5,3.1,331.3,0.00,4.7,130.0,"19:13:36",1
"21/02/28","19:30",0.0,9.7,72.6,1026.0,339.2,1.2,2.5,324.4,0.00,5.1,130.0,"19:26:56",1
"21/02/28","19:40",0.0,9.8,72.7,1026.3,303.7,0.8,1.7,301.6,0.00,5.2,130.0,"19:35:28",1
"21/02/28","19:50",0.0,9.4,73.1,1026.3,283.9,1.6,2.2,302.7,0.00,4.9,130.0,"19:46:56",1
"21/02/28","20:00",0.0,9.2,73.8,1026.3,290.9,1.8,2.4,307.2,0.00,4.8,130.0,"19:52:16",1
"21/02/28","20:10",0.0,9.1,74.6,1026.0,298.3,1.7,2.5,267.1,0.00,4.9,130.0,"20:04:16",1
"21/02/28","20:20",0.0,9.1,75.3,1026.0,278.6,2.1,2.6,284.4,0.00,5.0,130.0,"20:18:00",1
"21/02/28","20:30",0.0,9.0,76.1,1026.0,306.2,2.5,3.4,318.8,0.00,5.1,130.0,"20:22:48",1
"21/02/28","20:40",0.0,9.0,76.6,1026.0,285.4,2.0,2.9,303.5,0.00,5.2,130.0,"20:30:08",1
"21/02/28","20:50",0.0,9.0,77.2,1026.0,292.6,2.0,2.5,308.1,0.00,5.3,130.0,"20:48:16",1
"21/02/28","21:00",0.0,9.1,77.6,1026.5,288.4,2.0,2.6,292.6,0.00,5.4,130.0,"20:52:48",1
"21/02/28","21:10",0.0,9.1,78.1,1026.3,294.6,1.8,2.2,304.7,0.00,5.5,130.0,"21:01:20",1
"21/02/28","21:20",0.0,8.9,78.6,1026.0,304.3,1.8,2.0,310.7,0.00,5.4,130.0,"21:14:24",1
"21/02/28","21:30",0.0,8.9,79.2,1026.0,299.4,2.2,2.6,304.0,0.00,5.5,130.0,"21:28:00",1
"21/02/28","21:40",0.0,8.7,79.7,1025.8,305.2,2.0,2.5,308.3,0.00,5.4,130.0,"21:38:56",1
"21/02/28","21:50",0.0,8.7,80.1,1026.3,292.6,2.0,2.8,313.4,0.00,5.5,130.0,"21:40:32",1
"21/02/28","22:00",0.0,8.6,80.6,1026.0,303.5,2.3,3.2,321.1,0.00,5.5,130.0,"21:57:28",1
"21/02/28","22:10",0.0,8.7,80.8,1026.3,294.9,2.0,2.8,298.5,0.00,5.6,130.0,"22:01:44",1
"21/02/28","22:20",0.0,8.6,81.2,1026.3,296.2,2.0,2.7,307.2,0.00,5.6,130.0,"22:17:52",1
"21/02/28","22:30",0.0,8.5,81.5,1026.0,303.3,1.7,2.6,304.9,0.00,5.6,130.0,"22:20:16",1
"21/02/28","22:40",0.0,8.3,81.8,1025.8,301.1,1.6,2.2,325.9,0.00,5.4,130.0,"22:37:44",1
"21/02/28","22:50",0.0,8.2,82.2,1025.8,284.9,1.5,1.8,314.5,0.00,5.4,130.0,"22:40:32",1
"21/02/28","23:00",0.0,8.2,82.4,1025.8,285.6,1.6,2.0,301.4,0.00,5.4,130.0,"22:54:00",1
"21/02/28","23:10",0.0,8.1,82.7,1025.6,294.6,1.5,2.0,305.0,0.00,5.4,130.0,"23:05:44",1
"21/02/28","23:20",0.0,7.9,83.0,1025.3,325.1,1.8,2.7,323.6,0.00,5.2,130.0,"23:18:56",1
"21/02/28","23:30",0.0,7.3,83.5,1025.1,317.4,1.7,2.4,321.9,0.00,4.7,130.0,"23:22:24",1
"21/02/28","23:40",0.0,6.8,83.9,1025.1,304.6,1.5,2.6,322.1,0.00,4.3,130.0,"23:31:44",1
"21/02/28","23:50",0.0,6.5,84.5,1024.9,304.8,1.6,2.2,310.9,0.00,4.1,130.0,"23:44:00",1
"21/02/28","24:00",0.0,6.6,85.4,1024.6,305.3,2.0,2.4,320.0,0.00,4.4,130.0,"23:53:20",1
